Theta_e
321 325 330 335 335 337 340 342 349 348 351 349 348 348 349 346 341 344 336 333 330 333
318 324 329 335 338 337 342 342 346 347 347 347 344 344 344 338 340 339 334 329 326 325
315 320 328 335 338 339 341 344 345 346 347 347 344 345 341 336 338 336 333 333 326 324
314 317 326 332 338 340 342 343 344 345 345 344 344 345 337 334 337 331 328 331 323 322
313 315 322 331 336 340 341 342 343 344 343 343 342 344 336 330 330 326 328 324 325 317
311 314 317 329 332 339 340 340 341 341 341 340 340 340 336 331 327 323 327 326 321 314
310 313 315 325 330 333 337 336 338 339 337 338 336 336 328 323 324 326 328 325 322 314
310 312 315 325 329 331 330 328 328 335 336 334 331 327 324 321 320 320 317 317 312 309
309 311 314 324 327 329 331 331 330 333 330 326 324 312 313 319 321 317 311 311 312 310
309 310 314 324 327 326 326 329 332 328 327 321 318 307 310 310 311 309 308 306 307 304
308 309 313 320 321 323 323 323 322 321 319 317 311 307 305 309 317 311 307 307 307 304
309 309 312 319 318 317 316 314 314 315 314 309 306 301 303 309 308 305 306 307 303 304
309 310 311 318 314 311 312 310 310 307 310 306 304 301 303 305 302 300 302 303 300 300
310 311 313 312 309 306 306 306 304 303 303 303 302 301 299 303 304 301 300 299 297 298
Wind_Speed
15 10 9 11 11 11 11 11 11 12 12 12 12 12 11 8 8 12 8 7 6 3
14 14 12 13 12 11 12 11 13 14 14 13 13 13 10 7 9 11 12 10 12 9
15 15 14 12 13 14 13 14 14 14 13 13 12 13 11 9 10 13 10 10 13 10
15 16 14 11 13 13 13 13 14 14 14 12 12 14 12 10 14 13 10 12 14 16
15 15 14 11 13 12 11 12 12 13 11 11 13 15 14 13 10 13 15 13 16 16
14 13 14 12 9 11 10 9 7 6 8 12 13 16 13 14 14 12 16 16 18 17
13 13 13 11 8 7 7 8 7 7 9 10 11 14 13 13 14 16 17 16 17 16
14 12 12 9 7 7 8 8 6 9 8 7 9 8 14 15 16 16 14 13 13 11
13 12 11 8 7 8 9 8 6 6 6 8 5 10 15 16 13 13 15 14 17 18
11 12 10 8 7 8 8 5 6 5 7 6 6 12 15 19 14 15 15 14 16 15
11 11 9 6 4 5 5 6 6 7 7 7 9 17 16 21 16 15 15 17 17 18
9 9 9 3 3 3 5 6 6 6 10 10 9 13 19 21 17 16 15 17 16 14
9 9 9 4 6 4 4 7 7 9 9 10 13 8 13 19 14 16 13 16 15 16
8 8 7 7 7 8 8 9 11 13 10 12 9 8 7 14 15 15 13 14 12 11
Wind_Direction
311 298 292 266 250 237 234 220 201 193 206 224 219 220 213 206 201 202 172 130 62 26
308 303 297 281 252 234 223 219 198 193 189 203 218 219 194 177 184 187 165 151 129 124
306 305 294 286 254 237 226 214 199 196 188 191 207 203 176 169 175 178 173 157 143 123
311 311 300 291 263 242 233 214 202 193 188 184 200 200 171 176 175 160 159 167 137 128
305 311 302 281 270 243 228 218 215 205 184 185 199 197 181 170 172 161 160 147 137 129
301 307 309 297 282 235 204 204 205 205 209 198 200 195 191 172 160 160 153 156 140 139
297 303 308 302 272 278 208 184 188 204 213 201 208 192 164 161 159 162 159 158 146 150
293 296 304 293 269 247 233 238 182 199 193 186 187 172 160 159 157 158 144 142 129 115
293 297 302 288 258 247 242 248 202 164 181 163 161 181 167 155 160 140 132 132 127 122
290 293 303 291 252 240 233 212 200 151 162 128 124 142 138 125 123 117 117 123 122 120
287 290 308 281 233 224 204 136 125 129 126 127 132 138 134 130 128 117 122 130 125 122
287 290 309 239 127 122 133 120 114 138 127 121 120 127 139 121 117 114 123 125 118 128
285 286 302 151 110 71 91 106 112 91 99 114 124 122 129 123 120 119 116 107 104 115
278 277 292 109 106 101 91 93 94 93 83 88 89 82 92 134 132 129 123 114 114 113